Time,TemperatureF,DewpointF,PressureIn,WindDirection,WindDirectionDegrees,WindSpeedMPH,WindSpeedGustMPH,Humidity,HourlyPrecipIn,Conditions,Clouds,dailyrainin,SoftwareType,DateUTC
2013-07-19 00:00:00,51.2,48.0,29.90,NW,319,3.0,4.0,87,0.00,,,0.06,weatherlink.com 1.10,2013-07-19 06:00:00,
2013-07-19 00:15:00,50.8,47.0,29.91,NNW,330,4.0,6.0,88,0.00,,,0.00,weatherlink.com 1.10,2013-07-19 06:15:00,
2013-07-19 00:30:00,50.8,47.0,29.90,NNW,340,3.0,4.0,87,0.00,,,0.00,weatherlink.com 1.10,2013-07-19 06:30:00,
2013-07-19 00:45:00,49.8,47.0,29.90,NW,322,2.0,3.0,89,0.00,,,0.00,weatherlink.com 1.10,2013-07-19 06:45:00,
2013-07-19 01:00:00,49.0,46.0,29.90,NW,325,0.0,3.0,90,0.00,,,0.00,weatherlink.com 1.10,2013-07-19 07:00:00,
2013-07-19 01:15:00,47.5,45.0,29.91,WNW,290,0.0,0.0,90,0.00,,,0.00,weatherlink.com 1.10,2013-07-19 07:15:00,
2013-07-19 01:30:00,47.4,46.0,29.91,North,4,0.0,0.0,93,0.00,,,0.00,weatherlink.com 1.10,2013-07-19 07:30:00,
2013-07-19 01:45:00,46.9,45.0,29.91,WSW,240,0.0,0.0,92,0.00,,,0.00,weatherlink.com 1.10,2013-07-19 07:45:00,
2013-07-19 02:00:00,47.4,46.0,29.91,WSW,243,0.0,0.0,93,0.00,,,0.00,weatherlink.com 1.10,2013-07-19 08:00:00,
2013-07-19 02:15:00,47.6,46.0,29.92,WSW,243,0.0,0.0,93,0.00,,,0.00,weatherlink.com 1.10,2013-07-19 08:15:00,
2013-07-19 02:31:00,47.5,45.0,29.92,WNW,297,0.0,0.0,92,0.00,,,0.00,weatherlink.com 1.10,2013-07-19 08:31:00,
2013-07-19 02:46:00,48.0,46.0,29.91,West,281,2.0,5.0,92,0.00,,,0.00,weatherlink.com 1.10,2013-07-19 08:46:00,
2013-07-19 03:01:00,48.4,46.0,29.91,NNW,346,4.0,6.0,90,0.00,,,0.00,weatherlink.com 1.10,2013-07-19 09:01:00,
2013-07-19 03:16:00,48.0,45.0,29.91,NW,311,2.0,3.0,90,0.00,,,0.00,weatherlink.com 1.10,2013-07-19 09:16:00,
2013-07-19 03:31:00,46.7,44.0,29.91,NW,314,0.0,3.0,91,0.00,,,0.00,weatherlink.com 1.10,2013-07-19 09:31:00,
2013-07-19 03:46:00,46.4,44.0,29.91,NW,322,0.0,0.0,92,0.00,,,0.00,weatherlink.com 1.10,2013-07-19 09:46:00,
2013-07-19 04:03:00,46.2,44.0,29.90,NNW,342,3.0,3.0,92,0.00,,,0.00,weatherlink.com 1.10,2013-07-19 10:03:00,
2013-07-19 04:16:00,46.5,44.0,29.90,SW,232,1.0,2.0,91,0.00,,,0.00,weatherlink.com 1.10,2013-07-19 10:16:00,
2013-07-19 04:31:00,46.0,44.0,29.90,SW,235,0.0,0.0,93,0.00,,,0.00,weatherlink.com 1.10,2013-07-19 10:31:00,
2013-07-19 04:46:00,45.8,44.0,29.90,SW,235,0.0,0.0,93,0.00,,,0.00,weatherlink.com 1.10,2013-07-19 10:46:00,
2013-07-19 05:01:00,45.6,44.0,29.91,NW,322,2.0,2.0,93,0.00,,,0.00,weatherlink.com 1.10,2013-07-19 11:01:00,
2013-07-19 05:16:00,45.2,43.0,29.91,WNW,300,0.0,2.0,93,0.00,,,0.00,weatherlink.com 1.10,2013-07-19 11:16:00,
2013-07-19 05:31:00,44.8,43.0,29.91,WNW,299,0.0,0.0,94,0.00,,,0.00,weatherlink.com 1.10,2013-07-19 11:31:00,
2013-07-19 05:46:00,44.4,43.0,29.92,NNW,348,1.0,2.0,94,0.00,,,0.00,weatherlink.com 1.10,2013-07-19 11:46:00,
2013-07-19 06:01:00,44.4,43.0,29.92,NNW,333,0.0,0.0,93,0.01,,,0.01,weatherlink.com 1.10,2013-07-19 12:01:00,
2013-07-19 06:16:00,43.9,42.0,29.92,NNE,18,0.0,0.0,94,0.01,,,0.01,weatherlink.com 1.10,2013-07-19 12:16:00,
2013-07-19 06:31:00,43.5,42.0,29.93,North,356,0.0,0.0,93,0.01,,,0.01,weatherlink.com 1.10,2013-07-19 12:31:00,
2013-07-19 06:46:00,44.4,43.0,29.94,North,354,0.0,2.0,94,0.01,,,0.01,weatherlink.com 1.10,2013-07-19 12:46:00,
2013-07-19 07:01:00,45.9,44.0,29.94,NNW,342,0.0,3.0,91,0.00,,,0.01,weatherlink.com 1.10,2013-07-19 13:01:00,
2013-07-19 07:16:00,45.5,43.0,29.94,NNW,337,0.0,0.0,92,0.00,,,0.01,weatherlink.com 1.10,2013-07-19 13:16:00,
2013-07-19 07:31:00,45.8,44.0,29.94,NNW,338,0.0,0.0,92,0.00,,,0.01,weatherlink.com 1.10,2013-07-19 13:31:00,
2013-07-19 07:46:00,46.7,44.0,29.94,NNW,337,0.0,0.0,91,0.00,,,0.01,weatherlink.com 1.10,2013-07-19 13:46:00,
2013-07-19 08:01:00,49.3,46.0,29.94,NNW,330,4.0,5.0,88,0.00,,,0.01,weatherlink.com 1.10,2013-07-19 14:01:00,
2013-07-19 08:16:00,51.1,47.0,29.93,NE,34,2.0,3.0,86,0.00,,,0.01,weatherlink.com 1.10,2013-07-19 14:16:00,
2013-07-19 08:31:00,52.7,47.0,29.93,NE,54,2.0,3.0,82,0.00,,,0.01,weatherlink.com 1.10,2013-07-19 14:31:00,
2013-07-19 08:46:00,54.6,47.0,29.93,NE,54,0.0,3.0,76,0.00,,,0.01,weatherlink.com 1.10,2013-07-19 14:46:00,
2013-07-19 09:01:00,56.1,48.0,29.92,East,95,0.0,1.0,73,0.00,,,0.01,weatherlink.com 1.10,2013-07-19 15:01:00,
2013-07-19 09:16:00,57.3,48.0,29.92,ESE,122,0.0,0.0,71,0.00,,,0.01,weatherlink.com 1.10,2013-07-19 15:16:00,
2013-07-19 09:31:00,58.9,49.0,29.90,NE,46,2.0,4.0,71,0.00,,,0.01,weatherlink.com 1.10,2013-07-19 15:31:00,
2013-07-19 09:46:00,59.4,48.0,29.89,ENE,70,2.0,2.0,66,0.00,,,0.01,weatherlink.com 1.10,2013-07-19 15:46:00,
2013-07-19 10:01:00,60.8,48.0,29.88,East,85,1.0,3.0,63,0.00,,,0.01,weatherlink.com 1.10,2013-07-19 16:01:00,
2013-07-19 10:17:00,62.5,48.0,29.87,NE,53,2.0,3.0,60,0.00,,,0.01,weatherlink.com 1.10,2013-07-19 16:17:00,
2013-07-19 10:32:00,65.1,49.0,29.87,East,100,2.0,5.0,57,0.00,,,0.01,weatherlink.com 1.10,2013-07-19 16:32:00,
2013-07-19 10:47:00,66.9,49.0,29.86,SSW,194,0.0,6.0,53,0.00,,,0.01,weatherlink.com 1.10,2013-07-19 16:47:00,
2013-07-19 11:02:00,67.3,50.0,29.84,NW,314,1.0,5.0,54,0.00,,,0.01,weatherlink.com 1.10,2013-07-19 17:02:00,
2013-07-19 11:17:00,69.1,48.0,29.84,NE,46,2.0,6.0,48,0.00,,,0.01,weatherlink.com 1.10,2013-07-19 17:17:00,
2013-07-19 11:32:00,71.5,46.0,29.83,WSW,255,2.0,5.0,41,0.00,,,0.01,weatherlink.com 1.10,2013-07-19 17:32:00,
2013-07-19 11:47:00,72.2,46.0,29.83,SSW,204,1.0,7.0,40,0.00,,,0.01,weatherlink.com 1.10,2013-07-19 17:47:00,
2013-07-19 12:02:00,73.8,46.0,29.82,SW,228,0.0,4.0,37,0.00,,,0.01,weatherlink.com 1.10,2013-07-19 18:02:00,
2013-07-19 12:17:00,74.0,47.0,29.81,North,6,5.0,6.0,38,0.00,,,0.01,weatherlink.com 1.10,2013-07-19 18:17:00,
2013-07-19 12:32:00,73.1,47.0,29.80,ENE,61,3.0,6.0,39,0.00,,,0.01,weatherlink.com 1.10,2013-07-19 18:32:00,
2013-07-19 12:47:00,73.9,47.0,29.80,WSW,255,3.0,10.0,38,0.00,,,0.01,weatherlink.com 1.10,2013-07-19 18:47:00,
2013-07-19 13:02:00,70.6,48.0,29.80,West,263,5.0,11.0,44,0.00,,,0.01,weatherlink.com 1.10,2013-07-19 19:02:00,
2013-07-19 13:17:00,69.9,49.0,29.80,West,280,7.0,11.0,47,0.00,,,0.01,weatherlink.com 1.10,2013-07-19 19:17:00,
2013-07-19 13:32:00,70.1,47.0,29.79,SW,226,6.0,11.0,44,0.00,,,0.01,weatherlink.com 1.10,2013-07-19 19:32:00,
2013-07-19 13:47:00,71.8,47.0,29.79,West,273,9.0,10.0,42,0.00,,,0.01,weatherlink.com 1.10,2013-07-19 19:47:00,
2013-07-19 14:02:00,69.0,46.0,29.80,West,262,5.0,15.0,44,0.00,,,0.01,weatherlink.com 1.10,2013-07-19 20:02:00,
2013-07-19 14:17:00,65.0,49.0,29.81,NNE,29,0.0,10.0,56,0.00,,,0.01,weatherlink.com 1.10,2013-07-19 20:17:00,
2013-07-19 14:32:00,61.8,49.0,29.82,ENE,69,7.0,21.0,64,0.00,,,0.01,weatherlink.com 1.10,2013-07-19 20:32:00,
2013-07-19 14:47:00,60.9,50.0,29.83,SE,145,9.0,14.0,67,0.00,,,0.01,weatherlink.com 1.10,2013-07-19 20:47:00,
2013-07-19 15:02:00,60.8,50.0,29.83,SE,137,15.0,19.0,67,0.00,,,0.01,weatherlink.com 1.10,2013-07-19 21:02:00,
2013-07-19 15:17:00,59.0,50.0,29.84,SSE,148,13.0,18.0,72,0.00,,,0.01,weatherlink.com 1.10,2013-07-19 21:17:00,
2013-07-19 15:32:00,58.3,51.0,29.85,SSE,148,12.0,15.0,76,0.00,,,0.01,weatherlink.com 1.10,2013-07-19 21:32:00,
2013-07-19 15:47:00,57.3,52.0,29.85,SE,125,9.0,14.0,81,0.00,,,0.01,weatherlink.com 1.10,2013-07-19 21:47:00,
2013-07-19 16:02:00,57.6,52.0,29.85,East,98,7.0,12.0,80,0.00,,,0.01,weatherlink.com 1.10,2013-07-19 22:02:00,
2013-07-19 16:17:00,58.0,51.0,29.86,ESE,111,3.0,10.0,77,0.00,,,0.01,weatherlink.com 1.10,2013-07-19 22:17:00,
2013-07-19 16:32:00,57.4,50.0,29.87,South,179,4.0,6.0,76,0.00,,,0.01,weatherlink.com 1.10,2013-07-19 22:32:00,
2013-07-19 16:47:00,56.7,50.0,29.87,South,186,3.0,5.0,79,0.00,,,0.01,weatherlink.com 1.10,2013-07-19 22:47:00,
2013-07-19 17:02:00,56.4,51.0,29.88,SE,145,1.0,5.0,82,0.00,,,0.01,weatherlink.com 1.10,2013-07-19 23:02:00,
2013-07-19 17:17:00,56.4,51.0,29.88,SE,136,0.0,2.0,83,0.01,,,0.02,weatherlink.com 1.10,2013-07-19 23:17:00,
2013-07-19 17:32:00,56.0,52.0,29.88,East,80,0.0,0.0,85,0.02,,,0.03,weatherlink.com 1.10,2013-07-19 23:32:00,
2013-07-19 17:47:00,56.0,52.0,29.88,NW,325,1.0,3.0,85,0.02,,,0.03,weatherlink.com 1.10,2013-07-19 23:47:00,
2013-07-19 18:02:00,56.0,52.0,29.87,WNW,302,4.0,5.0,87,0.02,,,0.03,weatherlink.com 1.10,2013-07-20 00:02:00,
2013-07-19 18:17:00,55.9,52.0,29.87,WNW,300,4.0,9.0,86,0.02,,,0.04,weatherlink.com 1.10,2013-07-20 00:17:00,
2013-07-19 18:32:00,55.7,52.0,29.87,WNW,299,5.0,8.0,87,0.02,,,0.05,weatherlink.com 1.10,2013-07-20 00:32:00,
2013-07-19 18:47:00,55.5,51.0,29.87,NW,305,4.0,9.0,86,0.03,,,0.06,weatherlink.com 1.10,2013-07-20 00:47:00,
2013-07-19 19:02:00,55.1,50.0,29.88,NNW,330,4.0,6.0,84,0.03,,,0.06,weatherlink.com 1.10,2013-07-20 01:02:00,
2013-07-19 19:17:00,54.5,49.0,29.89,NNW,334,4.0,8.0,83,0.02,,,0.06,weatherlink.com 1.10,2013-07-20 01:17:00,
2013-07-19 19:32:00,54.2,50.0,29.89,NW,315,3.0,4.0,86,0.02,,,0.07,weatherlink.com 1.10,2013-07-20 01:32:00,
2013-07-19 19:47:00,53.9,50.0,29.90,West,281,3.0,5.0,87,0.02,,,0.08,weatherlink.com 1.10,2013-07-20 01:47:00,
2013-07-19 20:02:00,53.8,50.0,29.90,WSW,246,0.0,2.0,87,0.02,,,0.08,weatherlink.com 1.10,2013-07-20 02:02:00,
2013-07-19 20:17:00,53.8,50.0,29.90,WSW,243,0.0,1.0,88,0.02,,,0.08,weatherlink.com 1.10,2013-07-20 02:17:00,
2013-07-19 20:32:00,53.9,51.0,29.90,NNE,29,0.0,0.0,88,0.01,,,0.08,weatherlink.com 1.10,2013-07-20 02:32:00,
2013-07-19 20:47:00,53.5,50.0,29.90,NNE,29,0.0,0.0,88,0.00,,,0.08,weatherlink.com 1.10,2013-07-20 02:47:00,
2013-07-19 21:02:00,53.3,50.0,29.91,NNE,29,0.0,0.0,89,0.00,,,0.08,weatherlink.com 1.10,2013-07-20 03:02:00,
2013-07-19 21:17:00,53.1,51.0,29.91,South,171,0.0,0.0,92,0.00,,,0.08,weatherlink.com 1.10,2013-07-20 03:17:00,
2013-07-19 21:33:00,52.8,51.0,29.91,South,169,0.0,0.0,93,0.00,,,0.08,weatherlink.com 1.10,2013-07-20 03:33:00,
2013-07-19 21:48:00,53.0,51.0,29.91,SE,143,0.0,0.0,92,0.00,,,0.08,weatherlink.com 1.10,2013-07-20 03:48:00,
2013-07-19 22:03:00,52.9,50.0,29.92,NW,319,1.0,2.0,91,0.00,,,0.08,weatherlink.com 1.10,2013-07-20 04:03:00,
2013-07-19 22:18:00,52.3,50.0,29.92,NW,309,2.0,3.0,92,0.00,,,0.08,weatherlink.com 1.10,2013-07-20 04:18:00,
2013-07-19 22:33:00,52.7,50.0,29.92,North,6,4.0,6.0,91,0.00,,,0.08,weatherlink.com 1.10,2013-07-20 04:33:00,
2013-07-19 22:48:00,52.6,50.0,29.92,NW,305,3.0,3.0,91,0.00,,,0.08,weatherlink.com 1.10,2013-07-20 04:48:00,
2013-07-19 23:03:00,52.3,50.0,29.91,NW,317,1.0,3.0,91,0.00,,,0.08,weatherlink.com 1.10,2013-07-20 05:03:00,
2013-07-19 23:18:00,52.5,50.0,29.91,NW,322,0.0,4.0,90,0.00,,,0.08,weatherlink.com 1.10,2013-07-20 05:18:00,
2013-07-19 23:33:00,52.3,50.0,29.92,NW,321,0.0,0.0,90,0.00,,,0.08,weatherlink.com 1.10,2013-07-20 05:33:00,
2013-07-19 23:48:00,52.0,50.0,29.91,WSW,247,0.0,0.0,91,0.00,,,0.08,weatherlink.com 1.10,2013-07-20 05:48:00,